User: anonymous   Login
Location: The Saddle
(36.8333°N, 80.3417°W)
Time: 18:48:41
(UTC-04:00)
Language:

XW-2D - Orbit

View from above orbital plane
View from above orbital plane
View from above satellite
View from above satellite

Ground track
Ground track

The orbit data is extracted from the following two-line orbital elements,

1 40907U 15049J   23090.49567407  .00020629  00000-0  80580-3 0  9998
2 40907  97.4960  97.8234 0013588  72.9832  78.3513 15.25827265416625
Epoch (UTC): 31 March 2023 11:53:46
Eccentricity: 0.0013588
inclination: 97.4960°
perigee height: 479 km
apogee height: 497 km
right ascension of ascending node: 97.8234°
argument of perigee: 72.9832°
revolutions per day: 15.25827265
mean anomaly at epoch: 78.3513°
orbit number at epoch: 41662

The dashed part of the orbit path shows where the satellite is in the earth's shadow,  

DLR